Change the Weather History Date:

Tuesday, October 15, 2013

  Actual Average Record
Temperature  
Mean Temperature 67 °F -  
Max Temperature 81 °F 90 °F 104 °F (1991)
Min Temperature 53 °F 54 °F 36 °F (1928)
Cooling Degree Days 2    
Growing Degree Days 17 (Base 50)    
Moisture  
Dew Point 31 °F    
Average Humidity 27    
Maximum Humidity 47    
Minimum Humidity 14    
Precipitation  
Precipitation 0.00 in - - ()
Sea Level Pressure  
Sea Level Pressure 29.88 in    
Wind  
Wind Speed 7 mph (WNW)    
Max Wind Speed 14 mph    
Max Gust Speed -    
Visibility 10 miles    
Events      
Averages and records for this station are not official NWS values.
T = Trace of Precipitation, MM = Missing Value Source: NWS Daily Summary

Daily Weather History Graph

Daily Weather History Graph

Search for Another Location

Airport or City:

Trip Planner

Search our weather history database for the weather conditions in past years. The results will help you decide how hot, cold, wet, or windy it might be!

Date:

Astronomy

Oct. 15, 2013 Rise Set
Actual Time 6:34 AM MST 5:55 PM MST
Civil Twilight 6:09 AM MST 6:20 PM MST
Nautical Twilight 5:40 AM MST 6:49 PM MST
Astronomical Twilight 5:11 AM MST 7:18 PM MST
Moon 3:55 PM MST (10/15) 3:10 AM MST (10/15)
Length of Visible Light 12h 11m
Length of Day
11h 20m
Waxing Gibbous, 88% of the Moon is Illuminated
Oct 15
Waxing Gibbous
Oct 18
Full
Oct 26
Last Quarter
Nov 3
New
Nov 9
First Quarter

Hourly Weather History & Observations

Time (MST) Temp. Dew Point Humidity Pressure Visibility Wind Dir Wind Speed Gust Speed Precip Events Conditions
12:58 AM 63.1 °F 34.5 °F 34% 29.90 in 10.0 mi North 9.2 mph - N/A   Clear
1:58 AM 62.1 °F 35.1 °F 37% 29.88 in 10.0 mi NW 4.6 mph - N/A   Clear
2:58 AM 61.0 °F 32.7 °F 35% 29.89 in 10.0 mi North 1.2 mph - N/A   Clear
3:58 AM 55.4 °F 34.9 °F 46% 29.88 in 10.0 mi North 5.8 mph - N/A   Clear
4:58 AM 55.9 °F 33.4 °F 43% 29.88 in 10.0 mi NNW 10.4 mph - N/A   Clear
5:58 AM 53.4 °F 33.4 °F 47% 29.89 in 10.0 mi North 4.6 mph - N/A   Clear
6:58 AM 54.0 °F 34.3 °F 47% 29.91 in 10.0 mi North 6.9 mph - N/A   Clear
7:58 AM 57.7 °F 33.1 °F 39% 29.94 in 10.0 mi North 4.6 mph - N/A   Clear
8:58 AM 65.8 °F 31.6 °F 28% 29.93 in 10.0 mi North 4.6 mph - N/A   Clear
9:58 AM 69.8 °F 32.9 °F 26% 29.92 in 10.0 mi Calm Calm - N/A   Clear
10:58 AM 73.4 °F 32.7 °F 22% 29.92 in 10.0 mi SSW 3.5 mph - N/A   Clear
11:58 AM 76.1 °F 31.5 °F 20% 29.89 in 10.0 mi Variable 5.8 mph - N/A   Clear
12:58 PM 79.2 °F 33.1 °F 19% 29.86 in 10.0 mi South 4.6 mph - N/A   Clear
1:58 PM 80.8 °F 31.5 °F 17% 29.84 in 10.0 mi SSW 8.1 mph - N/A   Clear
2:58 PM 81.9 °F 29.8 °F 15% 29.82 in 10.0 mi SSW 12.7 mph - N/A   Clear
3:58 PM 81.9 °F 28.4 °F 14% 29.82 in 10.0 mi SSW 13.8 mph - N/A   Clear
4:58 PM 81.1 °F 29.8 °F 15% 29.81 in 10.0 mi SSW 13.8 mph - N/A   Clear
5:58 PM 78.4 °F 30.0 °F 17% 29.82 in 10.0 mi SSW 10.4 mph - N/A   Clear
6:58 PM 74.7 °F 33.8 °F 22% 29.84 in 10.0 mi SW 8.1 mph - N/A   Clear
7:58 PM 71.6 °F 27.7 °F 20% 29.86 in 10.0 mi WNW 8.1 mph - N/A   Clear
8:58 PM 69.6 °F 26.8 °F 20% 29.87 in 10.0 mi WNW 6.9 mph - N/A   Clear
9:58 PM 70.0 °F 23.7 °F 18% 29.88 in 10.0 mi WNW 6.9 mph - N/A   Clear
10:58 PM 65.8 °F 29.1 °F 25% 29.88 in 10.0 mi ESE 3.5 mph - N/A   Clear
11:58 PM 67.8 °F 25.7 °F 21% 29.90 in 10.0 mi ESE 5.8 mph - N/A   Clear